Location: Unspecified
(0.0000°N, 0.0000°E)
Time: 13:54:16
(UTC+02:00)

HO-68 - Visible Passes

Search period start: 25 July 2016 00:00
Search period end: 04 August 2016 00:00
Orbit: 1193 x 1204 km, 100.1° (Epoch: 25 July)

Date Brightness Start Highest point End Pass type
(mag) Time Alt. Az. Time Alt. Az. Time Alt. Az.
25 Jul ? 21:37:23 20° SSE 21:42:39 75° ENE 21:49:48 10° N visible
25 Jul ? 23:29:29 10° WSW 23:29:57 10° WSW 23:30:25 10° WSW visible
26 Jul ? 21:20:09 16° SSE 21:25:48 53° ENE 21:32:42 10° N visible
26 Jul ? 23:09:35 11° SW 23:13:08 16° WSW 23:17:16 10° WNW visible
27 Jul ? 21:02:56 12° SE 21:08:56 37° ENE 21:15:24 10° N visible
27 Jul ? 22:52:23 15° SW 22:56:19 24° WSW 23:01:49 10° NW visible
28 Jul ? 20:46:22 10° SE 20:52:06 26° ENE 20:57:47 10° NNE visible
28 Jul ? 22:35:09 19° SSW 22:39:29 34° WSW 22:45:49 10° NW visible
29 Jul ? 20:30:45 10° ESE 20:35:15 18° ENE 20:39:44 10° NE visible
29 Jul ? 22:17:56 21° S 22:22:37 49° WSW 22:29:28 10° NNW visible
30 Jul ? 22:00:43 21° S 22:05:46 69° WSW 22:12:53 10° NNW visible
31 Jul ? 21:43:29 19° SSE 21:48:54 85° ENE 21:56:06 10° NNW visible
01 Aug ? 21:26:16 16° SSE 21:32:03 61° ENE 21:39:05 10° N visible
01 Aug ? 23:16:08 10° SW 23:19:23 14° WSW 23:22:38 10° WNW visible
02 Aug ? 21:09:02 12° SE 21:15:11 43° ENE 21:21:52 10° N visible
02 Aug ? 22:58:29 13° SW 23:02:33 21° WSW 23:07:35 10° WNW visible
03 Aug ? 20:52:15 10° SE 20:58:20 30° ENE 21:04:24 10° NNE visible
03 Aug ? 22:41:16 16° SSW 22:45:43 30° WSW 22:51:46 10° NW visible
